Weather History for KLHX - March, 2013

Change the Weather History Date:

Saturday, March 9, 2013

  Actual Average Record
Temperature  
Mean Temperature 41 °F 42 °F  
Max Temperature 51 °F 57 °F 85 °F (1989)
Min Temperature 30 °F 27 °F 2 °F (1969)
Degree Days  
Heating Degree Days 24 23  
Month to date heating degree days 200 219  
Since 1 July heating degree days 3976 4320  
Cooling Degree Days 0 0  
Month to date cooling degree days 0 0  
Year to date cooling degree days 0 0  
Moisture  
Dew Point 30 °F    
Average Humidity 71    
Maximum Humidity 92    
Minimum Humidity 50    
Precipitation  
Precipitation 0.18 in 0.02 in 0.18 in (2013)
Month to date precipitation 0.20 0.17  
Year to date precipitation 0.31 0.82  
Sea Level Pressure  
Sea Level Pressure 29.73 in    
Wind  
Wind Speed 18 mph (NNW)    
Max Wind Speed 32 mph    
Max Gust Speed 40 mph    
Visibility 5 miles    
Events Fog , Rain , Snow    
T = Trace of Precipitation, MM = Missing Value Source: NWS Daily Summary

Daily Weather History Graph

Daily Weather History Graph

Search for Another Location

Airport or City:

Trip Planner

Search our weather history database for the weather conditions in past years. The results will help you decide how hot, cold, wet, or windy it might be!

Date:

Astronomy

Mar. 09, 2013 Rise Set
Actual Time 6:13 AM MST 5:55 PM MST
Civil Twilight 5:47 AM MST 6:22 PM MST
Nautical Twilight 5:17 AM MST 6:52 PM MST
Astronomical Twilight 4:46 AM MST 7:23 PM MST
Moon 4:37 AM MST (3/9) 4:01 PM MST (3/9)
Length of Visible Light 12h 34m
Length of Day
11h 41m
Waning Crescent, 5% of the Moon is Illuminated
Mar 9
Waning Crescent
Mar 11
New
Mar 19
First Quarter
Mar 27
Full
Apr 2
Last Quarter

Hourly Weather History & Observations

Time (MST) Temp. Windchill Dew Point Humidity Pressure Visibility Wind Dir Wind Speed Gust Speed Precip Events Conditions
12:53 AM 48.0 °F - 34.0 °F 58% 29.48 in 10.0 mi SSW 16.1 mph - N/A   Clear
1:53 AM 48.0 °F - 33.1 °F 56% 29.46 in 10.0 mi SW 19.6 mph 24.2 mph N/A   Clear
2:37 AM 48.2 °F - 32.0 °F 54% 29.54 in 10.0 mi WSW 19.6 mph 29.9 mph N/A   Clear
2:53 AM 44.1 °F 39.5 °F 30.9 °F 60% 29.45 in 10.0 mi NW 8.1 mph - N/A   Clear
3:53 AM 35.1 °F 28.6 °F 28.0 °F 76% 29.47 in 10.0 mi NNE 8.1 mph - N/A   Clear
5:53 AM 33.1 °F 25.5 °F 28.0 °F 82% 29.53 in 10.0 mi NNW 9.2 mph - N/A   Clear
6:53 AM 34.0 °F 26.6 °F 28.9 °F 82% 29.53 in 8.0 mi WNW 9.2 mph - N/A   Clear
7:53 AM 43.0 °F 36.4 °F 32.0 °F 65% 29.52 in 8.0 mi NNW 12.7 mph - N/A   Clear
8:53 AM 44.1 °F 38.6 °F 32.0 °F 63% 29.53 in 9.0 mi NNW 10.4 mph - N/A   Overcast
9:53 AM 45.0 °F 37.4 °F 32.0 °F 60% 29.54 in 8.0 mi NNE 18.4 mph - N/A   Overcast
10:18 AM 46.4 °F 39.2 °F 32.0 °F 57% 29.61 in 9.0 mi North 18.4 mph - N/A   Overcast
10:53 AM 45.0 °F 36.9 °F 32.0 °F 60% 29.55 in 8.0 mi North 20.7 mph - N/A   Overcast
11:53 AM 39.9 °F 30.2 °F 34.0 °F 79% 29.58 in 5.0 mi NNE 20.7 mph 27.6 mph 0.04 in Rain Light Rain
12:53 PM 37.0 °F 26.7 °F 30.9 °F 79% 29.63 in 6.0 mi NNE 19.6 mph 26.5 mph 0.04 in Snow Light Snow
1:16 PM 35.6 °F 24.0 °F 30.2 °F 81% 29.67 in 1.8 mi North 23.0 mph - 0.00 in Snow Light Snow
1:30 PM 33.8 °F 22.8 °F 30.2 °F 87% 29.67 in 0.8 mi NNE 18.4 mph 27.6 mph 0.00 in Snow Light Snow
1:53 PM 35.1 °F 26.9 °F 30.0 °F 82% 29.64 in 1.2 mi NNE 11.5 mph 27.6 mph 0.02 in Snow Light Snow
2:17 PM 35.6 °F 23.7 °F 30.2 °F 81% 29.69 in 1.8 mi North 24.2 mph 31.1 mph 0.01 in Snow Light Snow
2:25 PM 35.6 °F 24.0 °F 30.2 °F 81% 29.69 in 2.5 mi North 23.0 mph 31.1 mph 0.01 in Snow Light Snow
2:31 PM 33.8 °F 21.6 °F 30.2 °F 87% 29.70 in 1.5 mi North 23.0 mph 31.1 mph 0.01 in Snow Light Snow
2:37 PM 33.8 °F 21.3 °F 30.2 °F 87% 29.70 in 0.8 mi North 24.2 mph 32.2 mph 0.01 in Snow Light Snow
2:53 PM 33.1 °F 18.9 °F 30.0 °F 89% 29.70 in 0.5 mi North 31.1 mph 36.8 mph 0.01 in Fog , Snow Snow
3:01 PM 33.8 °F 20.3 °F 30.2 °F 87% 29.71 in 0.2 mi North 28.8 mph 36.8 mph 0.02 in Fog , Snow Heavy Snow
3:53 PM 32.0 °F 18.6 °F 30.0 °F 92% 29.76 in 0.2 mi North 25.3 mph 34.5 mph 0.03 in Fog , Snow Heavy Snow
4:53 PM 32.0 °F 19.2 °F 30.0 °F 92% 29.81 in 0.5 mi North 23.0 mph 32.2 mph 0.02 in Fog , Snow Snow
5:27 PM 33.8 °F 20.3 °F 28.4 °F 81% 29.81 in 1.2 mi North 28.8 mph 38.0 mph 0.01 in Snow Light Snow
5:34 PM 33.8 °F 20.1 °F 28.4 °F 81% 29.81 in 1.0 mi North 29.9 mph 40.3 mph 0.01 in Snow Light Snow
5:53 PM 33.1 °F 20.6 °F 30.0 °F 89% 29.86 in 1.0 mi North 23.0 mph - 0.01 in Snow Light Snow
5:56 PM 33.8 °F 22.5 °F 30.2 °F 87% 29.83 in 1.2 mi North 19.6 mph - 0.00 in Snow Light Snow
6:04 PM 33.8 °F 21.9 °F 30.2 °F 87% 29.84 in 1.5 mi North 21.9 mph - 0.00 in Snow Light Snow
6:19 PM 33.8 °F 22.2 °F 30.2 °F 87% 29.85 in 1.2 mi North 20.7 mph - 0.00 in Snow Light Snow
6:26 PM 33.8 °F 22.8 °F 30.2 °F 87% 29.86 in 1.2 mi NNW 18.4 mph - 0.00 in Snow Light Snow
6:30 PM 33.8 °F 23.2 °F 30.2 °F 87% 29.86 in 1.0 mi NNW 17.3 mph - 0.00 in Snow Light Snow
6:40 PM 33.8 °F 21.6 °F 30.2 °F 87% 29.87 in 0.8 mi NNW 23.0 mph 35.7 mph 0.00 in Snow Light Snow
6:53 PM 33.1 °F 20.9 °F 28.9 °F 85% 29.89 in 1.2 mi NNW 21.9 mph 31.1 mph 0.01 in Snow Light Snow
7:04 PM 33.8 °F 21.9 °F 28.4 °F 81% 29.88 in 2.0 mi NNW 21.9 mph - 0.00 in Snow Light Snow
7:14 PM 33.8 °F 21.9 °F 28.4 °F 81% 29.89 in 5.0 mi NNW 21.9 mph - 0.00 in Snow Light Snow
7:31 PM 33.8 °F 22.2 °F 28.4 °F 81% 29.90 in 9.0 mi NNW 20.7 mph 29.9 mph 0.00 in Snow Light Snow
7:53 PM 34.0 °F 22.1 °F 27.0 °F 75% 29.90 in 10.0 mi NNW 21.9 mph - 0.00 in   Overcast
8:53 PM 33.1 °F 25.5 °F 27.0 °F 78% 29.94 in 10.0 mi NW 9.2 mph - N/A   Overcast
9:53 PM 34.0 °F 23.0 °F 25.0 °F 70% 29.98 in 10.0 mi NNW 18.4 mph - N/A   Overcast
10:53 PM 32.0 °F 17.2 °F 23.0 °F 69% 30.02 in 4.0 mi NNW 32.2 mph 40.3 mph 0.00 in Snow Light Snow
11:53 PM 30.9 °F 18.1 °F 21.9 °F 69% 30.06 in 10.0 mi NNW 21.9 mph - 0.00 in   Partly Cloudy